| time (UTC) | temp C | wind direction | speed KPH | gust KPH | rain 1hr cm | rain 24hr cm | rain mn cm | humidity % | barometer mb |
| 20260505064518 | 14 | 40 | 4.8 | 11.3 | 0.00 | 0.00 | 0.00 | 69 | 1030.4 |
| 20260505063517 | 14 | 68 | 4.8 | 12.9 | 0.00 | 0.00 | 0.00 | 69 | 1030.4 |
| 20260505062517 | 13 | 328 | 3.2 | 6.4 | 0.00 | 0.00 | 0.00 | 71 | 1030.5 |
| 20260505061518 | 13 | 12 | 3.2 | 4.8 | 0.00 | 0.00 | 0.00 | 71 | 1030.4 |
| 20260505060517 | 13 | 236 | 3.2 | 9.7 | 0.00 | 0.00 | 0.00 | 71 | 1030.4 |
| 20260505055517 | 12 | 255 | 3.2 | 14.5 | 0.00 | 0.00 | 0.00 | 75 | 1030.4 |
| 20260505054516 | 13 | 304 | 1.6 | 6.4 | 0.00 | 0.00 | 0.00 | 74 | 1030.4 |
| 20260505053518 | 13 | 96 | 4.8 | 8.0 | 0.00 | 0.00 | 0.00 | 71 | 1030.3 |
| 20260505052517 | 13 | 99 | 3.2 | 11.3 | 0.00 | 0.00 | 0.00 | 72 | 1030.6 |
| 20260505051516 | 13 | 259 | 3.2 | 9.7 | 0.00 | 0.00 | 0.00 | 74 | 1030.5 |
| 20260505050518 | 13 | 347 | 4.8 | 9.7 | 0.00 | 0.00 | 0.00 | 72 | 1030.5 |
| 20260505041517 | 13 | 280 | 6.4 | 24.1 | 0.00 | 0.00 | 0.00 | 73 | 1030.7 |
| 20260505040517 | 14 | 240 | 3.2 | 12.9 | 0.00 | 0.00 | 0.00 | 72 | 1030.6 |
| 20260505035518 | 14 | 276 | 3.2 | 9.7 | 0.00 | 0.00 | 0.00 | 73 | 1030.8 |
| 20260505034517 | 14 | 265 | 3.2 | 6.4 | 0.00 | 0.00 | 0.00 | 73 | 1030.7 |
| 20260505033517 | 15 | 255 | 1.6 | 8.0 | 0.00 | 0.00 | 0.00 | 72 | 1030.7 |
| 20260505032516 | 14 | 283 | 3.2 | 6.4 | 0.00 | 0.00 | 0.00 | 72 | 1030.7 |
| 20260505031518 | 15 | 264 | 4.8 | 9.7 | 0.00 | 0.00 | 0.00 | 72 | 1030.8 |
| 20260505030517 | 15 | 247 | 4.8 | 11.3 | 0.00 | 0.00 | 0.00 | 71 | 1030.8 |
| 20260505025517 | 15 | 244 | 3.2 | 9.7 | 0.00 | 0.00 | 0.00 | 70 | 1030.8 |
| 20260505024516 | 15 | 252 | 1.6 | 4.8 | 0.00 | 0.00 | 0.00 | 71 | 1030.9 |
| 20260505023518 | 15 | 285 | 1.6 | 4.8 | 0.00 | 0.00 | 0.00 | 71 | 1031.0 |
| 20260505022517 | 15 | 273 | 1.6 | 8.0 | 0.00 | 0.00 | 0.00 | 71 | 1031.0 |
| 20260505021517 | 15 | 264 | 6.4 | 19.3 | 0.00 | 0.00 | 0.00 | 71 | 1031.1 |
| 20260505020516 | 15 | 269 | 4.8 | 14.5 | 0.00 | 0.00 | 0.00 | 71 | 1031.2 |
| 20260505015517 | 15 | 249 | 4.8 | 11.3 | 0.00 | 0.00 | 0.00 | 70 | 1031.3 |
| 20260505014517 | 15 | 257 | 3.2 | 9.7 | 0.00 | 0.00 | 0.00 | 70 | 1031.3 |
| 20260505013517 | 15 | 279 | 4.8 | 14.5 | 0.00 | 0.00 | 0.00 | 71 | 1031.5 |
| 20260505012516 | 15 | 226 | 4.8 | 11.3 | 0.00 | 0.00 | 0.00 | 70 | 1031.7 |
| 20260505011518 | 15 | 13 | 3.2 | 6.4 | 0.00 | 0.00 | 0.00 | 70 | 1031.8 |
| 20260505010537 | 15 | 313 | 4.8 | 14.5 | 0.00 | 0.00 | 0.00 | 69 | 1031.9 |
| 20260505005516 | 15 | 279 | 3.2 | 8.0 | 0.00 | 0.00 | 0.00 | 69 | 1032.1 |
| 20260505003517 | 16 | 246 | 4.8 | 11.3 | 0.00 | 0.00 | 0.00 | 68 | 1032.4 |
| 20260505002537 | 16 | 237 | 4.8 | 8.0 | 0.00 | 0.00 | 0.00 | 69 | 1032.6 |
| 20260505001517 | 16 | 238 | 6.4 | 16.1 | 0.00 | 0.00 | 0.00 | 68 | 1032.8 |
| 20260505000516 | 16 | 265 | 4.8 | 9.7 | 0.00 | 0.00 | 0.00 | 68 | 1032.9 |
| 20260504235517 | 16 | 64 | 3.2 | 8.0 | 0.00 | 0.00 | 0.00 | 67 | 1032.9 |
| 20260504234517 | 16 | 268 | 3.2 | 6.4 | 0.00 | 0.00 | 0.00 | 67 | 1033.1 |
| 20260504233517 | 16 | 252 | 4.8 | 16.1 | 0.00 | 0.00 | 0.00 | 65 | 1033.2 |
| 20260504232516 | 16 | 267 | 3.2 | 17.7 | 0.00 | 0.00 | 0.00 | 66 | 1033.3 |
| 20260504231517 | 16 | 266 | 3.2 | 8.0 | 0.00 | 0.00 | 0.00 | 66 | 1033.3 |
| 20260504230517 | 16 | 223 | 1.6 | 8.0 | 0.00 | 0.00 | 0.00 | 67 | 1033.4 |
| 20260504225517 | 16 | 300 | 1.6 | 3.2 | 0.00 | 0.00 | 0.00 | 66 | 1033.4 |
| 20260504224516 | 15 | 314 | 3.2 | 8.0 | 0.00 | 0.00 | 0.00 | 68 | 1033.3 |
| 20260504223517 | 15 | 264 | 4.8 | 12.9 | 0.00 | 0.00 | 0.00 | 68 | 1033.2 |
| 20260504222517 | 15 | 259 | 4.8 | 11.3 | 0.00 | 0.00 | 0.00 | 68 | 1033.2 |
| 20260504221517 | 15 | 269 | 4.8 | 19.3 | 0.00 | 0.00 | 0.00 | 70 | 1033.3 |
| 20260504220516 | 14 | 249 | 3.2 | 12.9 | 0.00 | 0.00 | 0.00 | 72 | 1033.3 |
| 20260504215518 | 13 | 99 | 1.6 | 4.8 | 0.00 | 0.00 | 0.00 | 75 | 1033.3 |
| 20260504214517 | 13 | 70 | 3.2 | 6.4 | 0.00 | 0.00 | 0.00 | 77 | 1033.3 |
| 20260504213657 | 13 | 68 | 4.8 | 12.9 | 0.00 | 0.00 | 0.00 | 73 | 1033.3 |
| 20260504212518 | 13 | 89 | 1.6 | 4.8 | 0.00 | 0.00 | 0.00 | 75 | 1033.2 |
| 20260504211518 | 13 | 80 | 3.2 | 6.4 | 0.00 | 0.00 | 0.00 | 76 | 1033.2 |
| 20260504210517 | 13 | 159 | 4.8 | 12.9 | 0.00 | 0.00 | 0.00 | 73 | 1033.2 |
| 20260504205517 | 13 | 139 | 3.2 | 16.1 | 0.00 | 0.00 | 0.00 | 75 | 1033.1 |
| 20260504204516 | 12 | 155 | 4.8 | 14.5 | 0.00 | 0.00 | 0.00 | 78 | 1033.1 |
| 20260504203538 | 12 | 72 | 4.8 | 8.0 | 0.00 | 0.00 | 0.00 | 78 | 1033.3 |
| 20260504202517 | 12 | 81 | 3.2 | 12.9 | 0.00 | 0.00 | 0.00 | 77 | 1033.3 |
| 20260504201516 | 12 | 111 | 3.2 | 8.0 | 0.00 | 0.00 | 0.00 | 77 | 1033.3 |
| 20260504200518 | 12 | 330 | 3.2 | 16.1 | 0.00 | 0.00 | 0.00 | 78 | 1033.3 |
| 20260504195518 | 11 | 279 | 6.4 | 14.5 | 0.00 | 0.00 | 0.00 | 82 | 1033.2 |
| 20260504194517 | 10 | 257 | 3.2 | 12.9 | 0.00 | 0.00 | 0.00 | 85 | 1033.2 |
| 20260504192518 | 10 | 89 | 4.8 | 9.7 | 0.00 | 0.00 | 0.00 | 83 | 1033.2 |
| 20260504191517 | 11 | 125 | 3.2 | 12.9 | 0.00 | 0.00 | 0.00 | 78 | 1033.2 |
| 20260504190537 | 11 | 21 | 4.8 | 16.1 | 0.00 | 0.00 | 0.00 | 79 | 1033.0 |
| 20260504185517 | 11 | 44 | 3.2 | 8.0 | 0.00 | 0.00 | 0.00 | 80 | 1033.0 |
| 20260504184518 | 11 | 295 | 4.8 | 14.5 | 0.00 | 0.00 | 0.00 | 83 | 1032.9 |
| 20260504183517 | 10 | 4.8 | 14.5 | 0.00 | 0.00 | 0.00 | 84 | 1032.9 | |
| 20260504182517 | 10 | 87 | 4.8 | 16.1 | 0.00 | 0.00 | 0.00 | 87 | 1033.0 |
| 20260504181516 | 8 | 254 | 1.6 | 4.8 | 0.00 | 0.00 | 0.00 | 88 | 1033.2 |
| 20260504180518 | 9 | 101 | 4.8 | 16.1 | 0.00 | 0.00 | 0.00 | 87 | 1033.2 |
| 20260504175517 | 10 | 3.2 | 6.4 | 0.00 | 0.00 | 0.00 | 83 | 1033.1 | |
| 20260504174517 | 10 | 48 | 4.8 | 12.9 | 0.00 | 0.00 | 0.00 | 82 | 1033.1 |
| 20260504173518 | 12 | 75 | 4.8 | 11.3 | 0.00 | 0.00 | 0.00 | 77 | 1032.9 |
| 20260504172517 | 12 | 43 | 3.2 | 9.7 | 0.00 | 0.00 | 0.00 | 78 | 1032.8 |
| 20260504171517 | 12 | 38 | 6.4 | 17.7 | 0.00 | 0.00 | 0.00 | 77 | 1032.8 |
| 20260504170516 | 12 | 311 | 3.2 | 11.3 | 0.00 | 0.00 | 0.00 | 78 | 1032.8 |
| 20260504150517 | 9 | 297 | 0.0 | 1.6 | 0.00 | 0.00 | 0.00 | 89 | 1033.6 |
| 20260504140517 | 9 | 336 | 1.6 | 4.8 | 0.00 | 0.00 | 0.00 | 88 | 1034.2 |
| 20260504130537 | 12 | 135 | 1.6 | 11.3 | 0.00 | 0.00 | 0.00 | 79 | 1034.3 |
| 20260504110517 | 13 | 250 | 3.2 | 11.3 | 0.00 | 0.03 | 0.03 | 77 | 1034.3 |
| 20260504100518 | 13 | 248 | 8.0 | 17.7 | 0.00 | 0.03 | 0.03 | 77 | 1034.4 |
| 20260504081518 | 12 | 250 | 3.2 | 12.9 | 0.00 | 0.03 | 0.03 | 79 | 1034.2 |
| 20260504080517 | 12 | 242 | 4.8 | 14.5 | 0.00 | 0.03 | 0.03 | 79 | 1034.2 |